Home > Weather > Sevilla > Past weeks

Flag for Spain Past Weather in Sevilla, Spain — Yesterday and Last 2 Weeks

Now
79 °F

Sunny.


Feels Like: 80 °F
Forecast: 70 / 94 °F
Wind: 3 mph from Northeast

Location: Sevilla / San Pablo

Current Time: Jun 28, 2016 at 10:00:25 AM

Latest Report: Jun 28, 2016 at 9:30 AM


Visibility: 10 mi

Pressure: 29.98 "Hg

Humidity: 58%

Dew Point: 63 °F

Location of SevillaLocation

Past Weather in Sevilla — Graph

°F

Sevilla Temperature Yesterday

Maximum temperature yesterday: 97 °F (at 5:00 PM)
Minimum temperature yesterday: 64 °F (at 5:00 AM)
Average temperature yesterday: 80 °F

High & Low Weather Summary for the Past Weeks

 TemperatureHumidityPressure
High97 °F (Jun 13, 4:30 PM)94% (Jun 26, 4:30 AM)30.24 "Hg (Jun 26, 4:30 AM)
Low57 °F (Jun 17, 5:30 AM)11% (Jun 21, 5:30 PM)29.77 "Hg (Jun 15, 5:30 PM)
Average78 °F44%30.00 "Hg
* Reported Jun 13 8:00 AM — Jun 28 8:30 AM, Sevilla, Weather by CustomWeather, © 2016

Note: Actual official high and low records may vary slightly from our data, if they occured in-between our weather recording intervals... More about our weather records

Advertising

Sevilla Weather History for the Previous 24 Hours

Scroll right to see more
 ConditionsComfort  
Time TempWeatherWind HumidityBarometerVisibility
8:30 AM
Tue, Jun 28
75 °FSunny.1 mph65%29.95 "Hg10 mi
8:00 AM75 °FClear.2 mph65%29.95 "Hg10 mi
7:30 AM73 °FClear.2 mph69%29.95 "Hg10 mi
7:00 AM75 °FPassing clouds.5 mph65%29.92 "HgN/A
6:30 AM75 °FClear.2 mph65%29.95 "Hg10 mi
6:00 AM75 °FClear.1 mph65%29.98 "Hg10 mi
5:30 AM75 °FClear.No wind65%29.98 "Hg10 mi
5:00 AM75 °FClear.No wind65%29.98 "Hg10 mi
4:30 AM75 °FClear.2 mph65%29.98 "Hg10 mi
4:00 AM75 °FClear.1 mph65%29.98 "Hg10 mi
3:30 AM75 °FClear.No wind65%29.98 "Hg10 mi
1:00 AM77 °FPassing clouds.5 mph61%30.01 "HgN/A
12:30 AM77 °FPassing clouds.9 mph65%30.01 "HgN/A
12:00 AM79 °FPassing clouds.12 mph61%30.04 "HgN/A
11:30 PM
Mon, Jun 27
81 °FClear.16 mph54%30.01 "Hg10 mi
11:00 PM81 °FClear.17 mph51%29.98 "Hg10 mi
10:30 PM81 °FPassing clouds.14 mph51%29.95 "HgN/A
10:00 PM84 °FPassing clouds.12 mph48%29.92 "HgN/A
9:30 PM86 °FPassing clouds.9 mph46%29.92 "HgN/A
9:00 PM93 °FSunny.6 mph26%29.89 "Hg10 mi
8:30 PM95 °FPassing clouds.10 mph25%29.89 "HgN/A
8:00 PM97 °FPassing clouds.9 mph23%29.89 "HgN/A
7:30 PM97 °FSunny.2 mph23%29.89 "Hg10 mi
7:00 PM97 °FSunny.6 mph23%29.92 "Hg10 mi
6:30 PM97 °FPassing clouds.8 mph25%29.92 "HgN/A
6:00 PM97 °FPassing clouds.8 mph23%29.92 "HgN/A
5:30 PM97 °FSunny.1 mph23%29.92 "Hg10 mi
5:00 PM97 °FPassing clouds.12 mph27%29.95 "HgN/A
4:30 PM95 °FPassing clouds.8 mph23%29.95 "HgN/A
4:00 PM95 °FPassing clouds.13 mph23%29.98 "HgN/A
3:30 PM93 °FPassing clouds.9 mph24%29.98 "HgN/A
3:00 PM93 °FPassing clouds.7 mph24%29.98 "HgN/A
2:30 PM91 °FSunny.6 mph26%30.01 "Hg10 mi
2:00 PM91 °FPassing clouds.8 mph24%30.01 "HgN/A
1:30 PM88 °FPassing clouds.9 mph27%30.04 "HgN/A
1:00 PM86 °FPassing clouds.8 mph29%30.04 "HgN/A
12:30 PM86 °FPassing clouds.9 mph29%30.04 "HgN/A
12:00 PM82 °FPassing clouds.8 mph30%30.04 "HgN/A
11:30 AM81 °FPassing clouds.8 mph39%30.07 "HgN/A
11:00 AM77 °FPassing clouds.5 mph54%30.07 "HgN/A
10:30 AM75 °FPassing clouds.5 mph57%30.07 "HgN/A
10:00 AM73 °FClear.1 mph65%30.07 "Hg6 mi
Weather by CustomWeather, © 2016

See weather overviewHow to use our weather pages